Theta_e
333 333 332 331 328 326 326 325 328 328 328 332 332 329 328 327 327 328 328 327 328 327 322 325 330 330 331 333 333 334 334 335 335 332 330 330 329 326 322 321 322 321 318 317 316 314 313 311 310 309 308 308 308 308 308 308 308 307 307 307 306 306 305 305 305 304 304 304 304 304 304 303 304 304 304 304 304 305 305 306 307 308 308 309 310
334 333 331 327 323 323 323 323 328 328 326 329 330 328 327 326 325 326 325 325 328 328 325 327 328 326 330 333 333 333 333 333 333 332 330 329 331 329 323 320 320 321 321 322 322 319 316 313 310 309 309 309 310 309 309 309 308 308 308 308 307 307 307 306 305 305 304 304 304 303 303 303 303 303 303 303 303 303 304 305 307 307 309 309 310
334 334 332 328 326 325 325 325 329 331 331 332 330 330 330 329 329 331 330 329 330 330 328 330 330 328 331 332 331 332 332 332 332 331 330 328 330 331 326 323 320 321 324 326 327 323 315 313 313 314 315 316 317 316 316 316 315 316 315 315 315 315 315 314 313 311 310 308 307 306 305 304 303 303 303 303 303 304 304 306 307 309 309 310 310
333 335 333 332 332 329 328 328 328 328 333 335 331 330 332 329 329 333 333 332 333 331 330 331 331 331 332 331 329 329 330 330 331 331 331 329 329 331 330 328 323 319 322 326 327 324 318 318 319 320 321 322 323 324 324 324 324 324 324 323 323 322 323 323 322 321 319 318 316 314 312 311 310 309 308 307 307 307 307 309 310 310 311 311 311
330 333 333 335 334 331 330 329 328 329 332 333 329 329 332 329 327 330 332 333 334 332 332 331 331 331 331 330 329 328 327 328 331 331 330 330 329 331 331 329 327 321 321 325 328 327 323 322 324 323 323 323 323 325 326 327 327 327 327 326 326 326 326 326 326 326 325 324 323 322 321 320 318 317 316 314 313 312 312 313 313 313 313 313 312
328 330 334 336 333 332 332 331 331 329 329 329 330 331 333 332 330 331 333 333 334 333 332 332 332 331 330 331 329 327 327 328 331 331 331 330 330 331 329 327 328 326 325 325 326 326 324 322 324 324 324 324 325 326 327 327 328 327 328 328 327 327 327 327 327 327 326 326 326 325 324 324 324 323 322 321 320 319 318 318 318 318 318 318 316
328 328 333 336 334 334 334 334 332 326 327 329 331 334 334 334 333 333 333 333 333 332 332 332 332 331 330 329 328 326 328 329 330 330 329 330 330 329 327 325 327 328 327 325 322 322 322 321 324 325 326 327 328 328 328 328 329 328 327 328 328 327 327 328 328 327 327 327 328 326 325 325 325 325 325 325 324 323 323 323 323 323 323 322 321
330 328 332 335 335 334 334 335 330 326 328 329 331 335 334 334 334 333 333 332 333 332 332 333 332 332 329 328 327 326 329 330 330 330 329 329 329 328 327 326 327 327 327 326 322 321 323 324 326 327 327 328 328 328 328 329 328 327 327 328 327 327 327 328 328 327 327 328 329 327 324 324 324 324 324 325 326 325 325 325 325 325 325 324 324
332 329 330 334 335 333 335 333 328 328 329 328 331 334 334 334 334 333 333 332 332 332 333 333 333 333 330 327 327 327 328 329 331 331 329 327 327 328 328 326 327 327 326 327 325 323 325 326 327 327 327 327 327 328 327 327 327 327 328 327 327 327 327 327 327 327 327 327 326 323 322 322 322 321 321 322 324 325 325 325 325 326 325 325 325
332 331 330 333 335 335 335 330 327 330 330 330 333 333 334 334 333 333 333 332 332 332 332 333 333 332 329 326 327 327 328 329 331 330 328 326 325 326 327 326 327 326 325 325 325 325 326 327 327 326 326 325 325 326 326 326 327 327 327 326 326 327 327 327 326 325 325 324 321 320 319 319 318 319 319 320 321 322 324 324 324 325 325 324 325
330 330 328 331 335 336 334 328 328 332 332 333 334 333 332 332 331 331 331 331 332 333 332 332 332 331 329 327 327 327 328 328 330 330 328 327 326 326 326 326 326 325 325 325 325 325 326 326 326 325 324 324 323 324 324 325 326 326 326 326 326 326 326 325 323 322 321 320 319 318 317 316 315 315 316 317 319 320 321 322 322 323 323 323 325
328 328 327 331 335 335 331 327 330 334 333 334 334 332 330 328 329 329 329 331 332 332 332 332 331 330 329 328 327 328 329 329 329 329 328 326 326 326 325 325 325 325 324 325 325 325 326 326 326 325 324 322 321 321 322 322 325 326 326 327 327 326 324 320 318 318 318 318 318 317 316 314 313 312 313 314 317 319 320 321 322 323 323 324 325
327 329 328 332 335 334 330 328 332 335 334 334 333 330 328 328 329 329 329 332 332 332 332 331 330 329 329 327 328 329 329 329 329 329 329 328 326 326 325 324 324 324 324 324 324 325 326 327 327 326 324 322 321 321 321 322 324 326 326 326 325 322 318 315 315 315 314 315 314 313 312 310 310 310 310 310 312 315 319 320 321 323 324 324 324
327 331 332 334 334 332 331 331 333 334 334 334 331 328 328 329 329 329 330 332 333 331 330 330 329 329 329 327 328 328 328 328 329 328 329 328 327 326 326 325 324 325 325 324 325 326 327 327 326 326 326 325 325 324 324 324 324 325 326 325 321 316 313 312 312 311 310 309 308 307 306 306 306 307 307 307 307 309 313 316 319 323 324 324 324
329 333 334 334 332 330 331 331 333 333 333 333 330 328 328 329 330 331 331 331 332 330 329 330 330 330 329 328 328 328 328 328 328 327 327 327 326 326 326 326 325 326 326 326 326 327 327 326 326 326 326 326 326 326 324 324 324 325 323 319 315 312 310 309 308 307 306 305 305 305 305 305 305 305 305 305 305 306 307 311 320 324 324 324 324
332 334 333 332 330 329 331 331 332 333 331 331 330 330 330 330 331 332 332 332 332 331 329 329 329 328 329 330 329 329 329 329 328 328 326 326 327 326 326 326 326 326 326 327 326 327 326 326 326 325 325 325 325 324 322 321 321 320 316 313 310 309 307 305 305 305 305 305 306 306 306 306 306 305 306 305 305 306 304 311 322 325 324 325 324
333 334 333 333 330 329 331 331 331 331 330 330 330 331 332 332 332 332 332 332 332 331 329 328 328 328 327 329 330 329 330 329 328 328 327 327 327 327 326 326 326 325 326 326 326 326 326 327 326 325 325 325 324 324 324 322 318 315 311 309 308 306 305 305 306 306 306 306 306 306 306 306 306 306 306 306 306 306 305 313 324 326 325 326 324
333 334 334 333 330 329 330 331 330 329 329 330 331 331 332 332 332 331 331 332 332 331 330 328 328 328 326 327 329 329 329 328 328 328 328 327 327 327 326 326 326 325 326 326 325 325 325 324 324 323 324 325 325 324 324 322 317 312 309 307 305 305 306 306 306 306 306 306 305 305 305 305 305 304 305 305 305 305 305 310 321 325 326 326 325
332 333 333 331 330 329 329 330 332 330 329 329 330 331 331 332 332 331 332 331 330 331 332 329 327 328 326 326 328 328 328 328 328 328 328 327 328 327 326 326 326 325 326 326 325 324 323 322 321 319 320 322 322 320 318 316 312 309 307 305 306 306 307 306 306 306 305 305 305 304 304 304 304 304 304 304 303 304 304 305 310 316 320 321 320
330 331 331 330 329 329 328 329 331 331 330 330 329 331 331 332 332 331 331 330 328 330 331 330 328 327 328 328 327 326 326 327 327 328 329 329 328 327 327 326 326 326 326 324 324 322 320 319 318 317 317 317 317 314 312 311 308 306 305 306 307 307 306 306 305 305 305 305 305 305 305 305 305 304 304 304 303 303 303 303 304 306 308 309 309
330 330 330 329 329 330 329 330 330 330 331 331 330 331 331 331 331 330 330 329 327 328 329 330 330 329 328 327 326 326 327 327 327 327 328 328 328 328 328 327 326 326 324 323 323 320 318 316 315 315 314 313 312 310 308 307 305 305 306 307 307 306 305 305 306 306 306 306 306 306 305 304 304 303 303 303 303 303 303 303 303 303 303 303 303
330 331 330 329 328 328 328 329 330 329 330 330 330 330 330 330 330 329 329 328 327 328 328 329 329 329 329 328 327 328 329 329 328 327 327 328 328 328 328 328 327 326 323 322 321 319 317 315 314 313 312 311 310 307 305 305 306 307 307 307 306 305 306 307 307 307 306 306 305 304 303 303 302 302 302 302 302 302 302 302 302 302 302 302 302
330 329 327 326 324 324 325 326 328 329 329 330 330 331 332 331 329 327 328 328 328 328 327 327 328 329 331 329 327 327 329 329 329 328 328 328 328 328 328 328 327 325 323 322 320 318 316 314 312 311 310 309 308 306 305 306 307 307 307 306 306 306 307 306 306 305 304 304 303 302 302 302 302 302 302 302 302 302 302 302 302 301 301 301 301
326 325 324 323 322 322 323 324 327 329 330 330 330 331 332 332 329 328 327 327 328 327 325 326 326 327 328 328 326 327 327 328 328 328 328 328 328 328 328 327 326 324 321 319 317 316 314 312 311 309 309 309 307 306 306 307 307 307 306 306 307 307 306 305 304 303 303 302 302 302 302 302 302 302 302 302 302 302 302 301 301 301 301 301 301
323 322 321 320 322 323 323 323 326 328 328 329 330 331 331 332 330 328 328 327 327 328 327 326 325 324 326 327 327 328 327 328 328 327 327 328 327 327 327 326 325 322 320 317 316 314 312 311 309 309 309 308 307 306 307 308 308 307 306 307 307 306 304 304 303 302 302 302 302 302 302 302 302 302 302 302 302 302 301 301 301 301 301 301 301
325 323 320 319 321 324 324 325 326 326 327 327 328 329 329 330 331 329 328 328 327 328 328 327 326 325 325 327 327 327 327 328 328 326 326 327 327 327 326 325 323 320 319 317 315 314 312 310 309 309 310 309 308 307 308 309 308 306 307 307 306 305 304 303 303 303 303 304 304 304 304 303 302 302 302 302 302 302 302 302 302 302 302 302 302
327 324 321 319 320 321 320 322 323 323 327 327 327 329 328 328 330 328 327 327 327 327 327 327 327 326 327 327 327 326 327 328 328 326 326 326 327 327 325 324 321 319 318 316 314 313 311 309 308 309 310 310 308 308 309 308 307 306 307 307 306 305 304 303 303 304 305 305 306 306 305 305 304 303 302 302 302 302 302 302 302 302 302 302 302
328 326 325 323 321 321 320 321 323 323 325 325 325 327 326 326 329 328 326 327 326 326 327 326 326 327 328 327 327 328 327 327 328 327 327 326 326 326 325 323 321 319 317 315 314 313 310 309 309 309 311 311 310 309 308 308 307 307 307 307 306 305 304 304 304 305 306 306 306 307 307 307 306 304 303 302 302 302 302 302 302 302 302 302 302
328 327 327 324 321 323 325 325 326 326 325 323 323 324 324 326 328 328 328 327 325 325 326 325 326 326 326 326 327 327 327 327 328 327 327 326 326 327 326 323 321 319 318 316 314 312 310 309 309 310 311 311 310 308 308 307 307 307 307 307 306 306 305 305 305 306 306 307 307 307 308 308 308 307 305 304 302 302 302 302 302 302 302 302 302
328 326 325 323 319 323 327 325 325 326 325 325 324 323 323 326 327 328 329 327 325 326 325 324 326 326 326 326 325 326 326 327 328 327 327 326 325 326 326 323 321 321 319 317 315 313 310 310 309 310 312 312 309 308 308 308 307 308 308 308 307 306 307 307 307 306 307 308 308 308 309 309 309 309 309 308 306 304 303 302 302 302 302 302 302
327 324 324 324 322 324 327 325 325 325 325 325 324 324 324 326 327 328 328 327 327 329 327 325 326 325 326 326 326 327 327 327 327 326 326 325 324 324 324 323 322 321 320 319 316 313 311 311 310 310 312 312 310 309 310 309 308 309 310 309 308 307 308 308 308 307 307 308 309 309 310 310 310 310 310 310 310 309 307 304 302 302 302 302 302
325 323 324 326 325 325 326 325 325 326 325 325 325 325 325 325 326 326 326 325 327 329 328 327 327 326 326 326 326 327 326 326 326 325 326 326 324 324 323 322 322 321 320 320 317 314 312 312 311 310 312 312 311 311 311 311 309 309 310 310 309 308 308 308 308 308 307 308 309 310 310 310 310 311 311 311 311 311 311 309 306 303 302 302 302
324 324 325 325 325 326 325 325 325 325 326 325 325 325 324 324 325 325 324 324 325 325 326 326 327 327 327 326 326 326 326 327 327 326 326 325 324 325 324 322 322 321 321 320 317 315 314 313 311 310 312 312 312 312 312 312 310 309 310 311 310 309 309 309 309 309 308 308 309 310 310 310 311 311 311 311 311 311 312 312 311 308 305 302 302
324 325 325 324 325 325 325 325 325 325 325 324 324 325 325 325 325 324 323 323 324 324 324 325 326 328 328 327 327 327 326 327 328 327 327 326 325 325 323 321 321 320 320 319 317 316 316 315 313 311 312 312 312 313 313 312 311 310 311 312 312 310 309 311 312 311 310 309 309 310 310 311 311 311 311 311 311 311 311 312 312 312 309 306 303
324 325 325 324 325 325 325 325 325 324 324 323 324 325 325 325 324 324 324 324 324 324 324 324 324 327 328 327 327 326 325 327 328 327 327 327 326 324 322 320 319 318 319 318 317 317 317 316 315 313 312 313 313 313 313 313 313 311 311 312 313 312 311 312 314 313 312 311 311 311 311 311 311 311 311 311 311 311 311 311 312 312 312 311 307
326 326 324 322 323 324 324 324 324 324 324 323 323 324 324 324 324 323 323 323 324 323 323 323 322 325 327 327 327 326 325 327 327 326 326 326 324 322 321 319 317 317 317 317 317 318 317 317 317 315 313 314 313 313 313 314 314 313 312 312 314 314 313 314 314 314 313 312 311 312 312 312 312 312 312 312 312 311 311 311 311 312 312 313 311
326 325 322 321 322 322 322 323 324 324 323 323 323 323 323 323 324 323 322 322 323 323 322 322 322 323 326 327 327 327 327 328 327 326 325 324 322 321 321 319 317 317 317 317 317 316 317 317 317 316 315 315 314 314 314 314 314 315 314 313 314 314 314 314 314 314 313 313 312 312 313 313 313 312 312 312 312 312 311 311 311 311 312 312 313
324 322 320 320 320 320 320 322 322 322 322 322 322 322 322 322 323 323 323 322 322 322 321 322 322 323 324 327 328 326 326 328 327 325 324 323 322 321 320 319 318 317 317 316 316 316 316 317 317 316 316 316 316 315 315 314 314 315 315 314 314 314 314 314 314 313 313 313 313 313 313 313 312 313 312 312 312 312 311 311 311 311 312 312 312
320 319 320 320 320 319 319 319 319 319 320 319 320 320 320 321 321 323 323 323 322 322 321 321 322 323 324 327 327 324 326 327 325 323 322 321 321 321 320 319 318 318 318 317 317 317 317 317 317 317 316 316 316 315 315 315 315 315 315 315 315 314 314 314 314 314 313 314 314 313 313 313 313 313 313 312 312 312 311 311 311 311 311 311 311
319 320 320 320 320 320 319 319 319 318 317 317 317 317 318 319 320 321 323 323 322 322 322 322 322 322 323 327 327 326 327 326 324 322 322 321 321 320 320 320 319 319 319 318 318 318 318 318 318 318 317 316 316 316 316 315 315 315 315 315 315 314 314 314 314 314 314 314 314 314 313 313 313 313 313 313 312 312 312 312 311 311 311 311 311
321 320 319 319 319 318 318 318 319 318 317 316 316 316 317 319 319 320 321 322 321 321 321 321 322 322 322 324 326 326 326 326 324 322 321 321 321 321 321 321 321 320 320 320 319 319 319 319 319 319 319 318 318 317 316 316 315 315 315 315 315 315 315 315 315 315 314 314 313 314 314 314 314 313 313 313 313 312 312 312 312 311 311 310 310
320 319 318 318 318 317 318 318 316 315 316 317 316 316 317 317 318 318 319 320 321 321 320 320 321 321 322 322 323 324 324 324 322 321 320 320 320 320 321 321 321 321 320 320 320 320 320 320 319 319 320 320 319 318 317 317 316 315 315 315 315 315 315 315 315 315 315 314 313 313 313 313 313 313 313 313 313 313 312 312 312 312 311 310 310
317 317 319 319 319 319 319 317 312 308 310 312 313 312 313 316 318 319 318 319 320 320 320 319 320 321 321 321 320 320 321 320 318 318 318 318 317 318 320 320 320 320 320 320 320 319 319 319 319 319 319 319 319 319 318 317 317 316 316 316 316 315 316 316 316 316 315 315 314 313 313 312 312 312 312 311 311 312 312 312 313 312 311 310 310
312 314 316 318 318 317 317 314 310 309 309 309 309 308 308 312 317 319 319 319 319 319 320 319 319 319 321 321 319 318 318 317 316 316 316 315 315 315 316 316 316 316 318 318 319 319 319 319 318 318 318 318 319 319 318 317 317 317 316 316 316 316 316 316 316 316 316 316 315 314 313 312 312 312 312 310 310 309 310 311 312 311 310 309 309
314 315 315 316 316 315 314 313 313 313 313 312 312 311 309 310 311 313 317 319 318 318 319 319 318 319 319 320 320 318 318 317 316 316 316 315 314 314 314 313 313 312 313 313 315 317 318 319 319 318 318 318 318 318 317 317 317 317 317 317 317 317 316 316 317 317 316 316 315 314 314 313 312 312 312 311 310 309 309 310 310 310 309 308 308
317 317 316 316 316 314 313 313 313 314 314 314 314 314 313 312 310 310 316 319 318 319 319 319 320 320 319 320 320 320 320 318 316 317 318 318 317 315 313 312 312 311 311 310 310 311 312 314 315 315 316 317 318 318 317 317 317 317 318 318 318 318 318 318 318 317 316 316 315 315 314 314 313 312 312 312 311 309 309 310 310 309 308 308 308
317 316 316 316 315 314 314 313 313 313 314 314 314 314 314 314 313 312 314 316 317 318 319 319 320 320 320 320 321 320 321 321 319 317 317 319 320 319 317 315 314 314 314 312 311 311 310 311 310 310 311 312 315 317 318 319 318 318 318 319 318 318 318 318 318 317 316 316 316 315 315 314 313 312 312 311 310 308 308 309 310 309 308 308 308
316 316 316 316 316 315 316 316 315 315 315 314 314 314 314 315 315 315 316 317 318 319 319 319 318 319 319 319 319 319 320 320 320 318 316 317 318 319 320 320 319 319 319 317 315 313 312 311 311 311 311 311 312 314 316 318 319 318 318 318 318 317 317 317 318 318 317 317 316 316 316 315 313 312 312 311 309 307 307 308 309 308 307 308 307
318 318 318 318 317 317 317 317 317 317 317 316 315 315 316 316 316 316 318 319 321 321 321 320 319 319 320 318 317 318 319 319 318 317 315 314 314 314 317 319 319 319 319 319 318 317 315 314 314 314 314 313 313 314 315 317 318 317 318 319 319 318 318 318 318 318 318 317 316 315 315 314 313 312 311 310 308 306 306 307 307 307 307 308 306
319 318 319 319 318 318 318 318 318 318 318 318 318 317 318 317 317 317 317 318 319 321 321 321 321 321 321 318 317 317 318 318 318 316 315 314 314 314 315 317 319 319 319 319 319 319 318 318 317 316 316 316 316 316 316 316 317 317 318 318 318 318 318 318 317 316 317 316 315 314 313 313 312 312 311 309 307 307 307 306 306 306 307 306 303
317 317 317 317 317 317 317 317 318 318 317 317 317 317 318 318 318 318 317 317 318 319 319 319 319 320 319 319 318 318 317 317 317 317 316 316 316 316 315 316 317 318 319 319 319 320 320 319 318 317 316 317 317 317 317 317 317 317 318 318 318 317 317 316 316 317 317 315 313 312 312 312 311 311 310 309 307 307 307 306 306 306 305 303 301
Wind_Speed
15 13 14 14 14 13 12 11 10 10 10 9 8 9 10 12 12 11 12 10 10 11 11 11 11 10 10 9 8 8 8 8 8 8 5 3 2 2 3 3 3 4 6 7 7 7 6 5 5 5 5 5 5 6 6 6 6 6 6 6 5 6 6 6 6 6 7 7 7 8 8 8 8 8 8 8 9 9 9 10 10 11 12 12 13
13 12 12 13 13 12 11 10 9 8 8 8 8 8 8 8 9 9 8 6 8 9 9 10 9 10 10 11 11 9 7 7 7 7 6 4 4 2 2 3 4 4 6 7 8 9 8 7 7 8 8 9 10 10 10 9 9 9 9 9 9 9 9 9 9 9 9 8 8 8 8 8 8 8 8 8 9 9 9 10 10 11 11 12 12
13 12 12 12 12 12 11 10 10 9 8 7 8 8 7 8 8 7 5 4 6 8 9 9 9 11 13 13 11 10 9 7 5 7 7 6 5 3 1 5 6 3 5 7 7 9 11 11 12 13 14 14 14 13 13 13 13 13 13 12 12 12 12 12 12 12 11 11 11 10 10 10 9 9 9 9 9 9 9 10 10 11 11 12 12
15 13 12 11 11 12 12 11 11 11 9 8 9 9 8 8 9 9 8 6 5 8 9 10 10 12 15 14 11 11 11 9 7 7 7 7 6 4 3 5 7 5 5 7 8 9 13 15 15 15 14 14 14 13 13 13 13 12 12 12 12 12 12 13 13 12 12 12 12 12 12 12 11 11 10 10 10 10 10 10 10 11 11 12 12
16 14 12 10 11 11 11 11 11 11 10 10 10 8 7 7 8 9 9 8 6 8 8 8 9 11 14 14 12 11 11 11 10 9 9 9 8 7 5 5 5 5 4 6 8 9 12 13 12 11 10 9 9 9 9 9 9 9 9 9 9 10 10 11 11 11 11 12 12 11 11 11 11 11 11 10 10 10 10 10 10 11 11 12 12
15 14 12 10 10 10 9 8 9 10 9 9 8 6 6 7 7 7 7 7 7 7 7 8 7 7 10 13 13 12 11 11 12 12 12 11 10 9 7 5 3 4 5 4 6 8 10 11 10 8 7 6 5 5 5 5 6 6 6 7 7 7 8 9 10 9 9 10 11 10 10 9 9 8 9 9 9 9 9 9 10 10 10 11 11
14 14 13 10 9 9 8 7 8 8 7 8 8 6 6 7 7 7 8 8 8 9 9 9 6 4 8 11 13 14 13 14 15 13 12 11 10 8 7 6 6 6 7 5 6 9 11 11 9 8 6 5 4 3 3 2 3 4 4 5 5 5 6 7 8 8 7 8 8 8 9 8 6 6 5 5 5 6 6 6 7 7 8 9 9
13 14 13 10 8 8 8 8 8 6 7 8 8 7 8 7 7 8 8 7 8 9 8 8 7 4 7 10 11 13 14 14 13 10 8 10 10 9 8 8 8 7 8 8 8 10 11 10 8 6 6 4 4 3 2 2 1 2 2 3 3 4 5 5 6 6 5 6 7 7 8 8 7 6 4 3 3 4 3 3 4 4 5 6 7
12 14 13 10 8 7 8 9 8 8 9 9 7 8 8 7 7 7 6 6 7 7 6 6 7 6 7 10 10 12 14 12 10 8 6 8 9 10 10 10 9 8 8 9 9 9 9 7 6 5 4 4 4 3 3 3 2 2 3 4 4 3 4 4 5 5 6 6 6 7 8 8 7 6 6 4 3 3 4 3 3 4 4 5 5
13 13 13 11 8 8 8 9 9 9 9 8 7 7 7 8 8 7 7 7 6 7 6 6 6 6 6 8 10 11 12 10 8 6 6 8 9 10 12 12 11 10 9 9 9 8 7 7 6 5 3 3 3 3 4 3 4 5 5 5 5 4 5 6 6 6 6 7 7 8 9 9 9 8 7 7 5 5 4 5 5 5 4 4 4
14 14 14 12 9 9 9 10 9 8 8 8 7 8 9 9 9 9 9 7 7 7 8 7 6 5 5 6 8 9 9 8 6 5 5 9 10 10 12 13 12 11 10 10 8 7 6 6 6 5 5 4 3 3 3 4 5 7 7 7 7 8 9 9 7 6 6 7 8 9 9 10 10 10 10 9 8 7 5 5 6 6 5 3 3
15 15 15 13 10 10 11 11 10 8 8 8 8 8 10 10 9 9 9 8 7 8 9 8 6 6 6 6 8 9 7 5 5 4 4 9 12 12 13 13 12 11 10 9 8 7 6 6 5 5 6 4 4 4 4 5 7 7 8 9 10 10 10 9 8 7 8 8 8 8 9 9 10 10 11 11 11 10 9 7 7 6 5 3 2
16 15 14 13 11 11 12 12 10 9 9 9 9 10 9 9 9 9 9 8 8 9 10 10 8 8 7 7 8 7 5 4 4 4 6 9 11 12 13 12 11 11 10 9 9 8 7 6 5 5 6 5 5 5 6 7 8 9 10 11 11 11 9 8 8 8 8 8 8 8 8 9 10 10 10 11 12 12 12 11 9 7 3 1 2
16 14 13 13 13 13 12 11 11 10 10 9 10 10 9 10 9 9 9 9 9 11 11 9 8 8 8 7 7 6 5 4 3 4 6 8 9 12 12 11 11 10 9 10 9 8 7 7 7 6 5 6 6 6 8 10 9 9 11 11 11 10 8 7 7 7 7 7 7 8 8 9 9 9 10 10 11 12 12 12 11 8 4 4 4
14 13 13 14 15 14 12 11 11 11 12 11 10 10 10 10 10 8 8 9 9 10 10 9 8 9 9 8 7 7 6 4 3 3 5 6 8 11 11 10 10 10 10 10 8 8 9 8 9 9 6 6 8 8 10 12 11 10 10 10 9 8 6 6 6 7 7 7 8 8 9 9 10 10 10 10 10 11 11 12 12 9 7 7 6
13 13 13 14 14 13 12 12 12 12 12 10 9 9 9 10 10 10 8 8 8 9 10 11 10 10 9 7 7 7 6 5 5 4 4 5 6 8 9 9 9 9 10 10 8 8 8 7 9 10 8 7 9 9 9 10 9 9 8 8 7 6 6 6 7 8 8 8 9 9 9 10 10 10 10 10 11 11 11 13 13 11 10 8 8
12 12 12 13 13 13 12 12 13 12 11 9 7 8 9 9 10 10 10 8 9 9 10 11 9 10 10 6 5 6 5 7 7 5 4 5 5 6 6 7 9 8 7 7 7 7 7 7 8 10 9 9 9 10 9 8 7 7 6 6 6 6 7 8 9 9 9 9 9 9 9 9 10 10 10 11 11 12 12 13 14 12 11 9 9
13 13 13 13 12 12 13 11 11 11 11 9 8 9 10 9 10 11 11 10 10 8 9 12 10 10 10 8 5 3 4 8 7 6 6 5 5 6 6 6 8 7 7 7 8 7 7 7 8 9 9 9 8 9 8 7 6 5 5 6 7 8 9 9 9 9 9 9 9 9 9 10 10 11 11 12 12 12 13 13 13 12 10 8 6
14 14 14 13 10 11 12 11 10 10 10 11 11 11 10 9 10 10 9 11 12 8 8 12 12 10 8 8 6 3 5 9 8 7 7 6 5 6 7 7 7 6 7 9 9 9 8 8 9 9 9 8 7 7 7 6 5 5 5 7 8 9 9 9 9 9 9 9 10 10 10 11 11 12 12 12 12 13 13 13 12 11 9 6 5
12 12 12 11 9 9 10 10 10 9 9 10 11 11 11 11 11 10 9 11 11 10 10 11 12 11 8 7 6 5 6 7 7 7 7 7 7 6 6 6 5 5 7 8 8 10 11 10 9 8 8 7 5 6 6 6 5 6 7 9 9 9 9 10 10 10 10 10 10 10 10 11 11 11 12 12 12 13 13 13 12 11 10 8 8
11 11 10 10 10 9 9 9 9 9 8 8 8 9 11 12 12 11 11 11 10 11 12 11 11 12 10 8 6 7 8 6 6 8 8 8 9 9 7 7 7 6 8 9 9 11 12 10 8 7 7 7 5 6 6 6 7 8 9 10 9 10 10 10 10 10 9 9 9 10 10 10 10 11 11 11 11 12 12 12 12 11 10 9 9
11 11 11 10 10 10 10 9 8 8 8 8 8 9 10 12 13 13 12 12 11 11 11 12 12 10 9 9 9 10 10 7 6 8 8 8 9 11 9 9 10 9 8 9 9 10 10 10 9 8 9 9 7 6 7 8 8 9 10 10 10 10 10 9 9 9 9 9 9 10 10 10 10 10 10 10 10 10 11 11 10 10 9 9 9
11 11 11 11 11 10 10 9 8 8 8 8 8 8 9 10 12 13 13 12 10 10 10 11 11 10 8 10 12 12 10 8 7 7 8 8 9 12 11 11 12 10 9 9 9 9 9 9 9 9 10 10 8 7 8 9 9 9 10 10 10 10 9 9 9 9 9 10 10 10 10 10 10 9 9 9 9 9 9 9 9 9 9 8 9
12 11 11 12 12 11 10 9 8 8 7 8 8 8 8 9 10 11 12 12 11 11 11 10 11 11 11 12 12 12 11 9 8 9 9 9 10 13 13 13 12 11 11 11 10 9 9 9 9 9 11 10 8 9 10 10 10 10 10 11 10 9 9 9 9 10 10 10 10 10 10 9 9 9 9 9 9 9 9 9 8 8 8 8 8
12 11 11 12 12 11 10 9 8 8 7 8 8 8 8 8 8 10 11 12 12 11 11 11 12 11 12 12 12 11 11 8 8 10 11 10 11 13 14 14 12 12 12 11 11 10 9 9 9 10 11 10 9 10 11 10 9 10 10 10 10 10 10 10 10 10 10 10 10 10 10 9 9 9 9 9 9 9 9 9 8 8 8 7 8
12 12 11 11 11 10 10 9 9 8 8 8 8 7 8 7 7 9 10 11 12 12 11 11 13 13 12 13 12 13 12 8 7 10 12 13 12 13 14 13 12 12 12 12 11 10 9 9 10 10 11 11 9 10 10 9 9 10 10 10 10 10 9 9 10 10 10 10 10 10 10 10 10 9 9 9 9 9 9 9 9 8 8 7 7
10 11 11 11 11 10 10 10 9 9 8 7 8 7 7 7 7 8 9 9 9 10 10 10 12 13 12 12 13 14 13 9 8 9 11 14 15 15 15 14 12 12 12 12 11 10 11 11 10 11 12 12 10 9 10 9 10 11 10 9 10 9 9 8 8 8 8 9 9 9 10 10 10 10 10 10 9 9 9 9 8 8 7 7 7
10 10 11 11 11 10 10 10 8 8 8 8 8 7 7 7 7 7 7 7 6 7 9 9 10 12 12 12 12 12 13 10 9 9 10 14 16 15 16 14 13 13 13 12 11 11 12 12 12 12 12 12 10 9 9 9 10 11 10 9 9 8 8 7 7 6 6 7 7 8 9 9 10 10 10 10 10 9 9 9 8 8 7 7 6
11 11 11 11 11 10 9 9 8 7 7 7 7 8 7 7 7 6 5 6 6 6 8 7 8 10 11 11 11 11 12 11 9 9 11 16 18 16 14 13 12 13 13 12 12 12 12 12 13 12 12 12 11 9 9 10 10 10 9 8 8 7 7 6 5 4 4 5 6 6 7 8 9 10 11 11 10 10 9 9 8 7 7 7 6
11 12 11 11 12 11 9 9 8 7 7 6 6 8 8 8 8 7 7 7 5 6 7 6 7 8 8 9 11 12 12 11 12 11 11 15 18 16 14 12 11 11 12 13 12 11 12 12 12 13 14 12 10 9 9 9 9 9 8 8 7 7 5 4 3 2 2 2 3 4 5 7 8 9 10 11 11 11 10 9 9 8 8 7 7
12 12 12 11 11 10 8 8 8 7 7 6 5 6 7 8 7 8 8 7 6 6 6 6 7 7 8 9 10 11 11 10 12 12 11 13 17 19 16 12 11 11 12 13 12 11 12 12 11 13 14 13 10 10 10 8 7 8 9 8 8 7 6 4 4 4 2 1 1 2 3 5 6 8 9 10 10 11 11 11 10 9 9 8 8
11 11 11 10 10 9 8 8 7 7 7 6 5 5 7 7 7 7 7 7 7 7 7 6 7 7 8 9 9 10 10 10 12 12 11 12 16 19 16 11 9 11 12 11 13 13 11 11 12 13 14 13 12 12 11 9 7 8 9 9 8 7 7 6 6 6 6 4 3 2 2 4 5 6 7 8 9 10 11 12 11 11 10 9 9
11 11 10 10 10 9 9 8 8 7 6 5 5 5 5 6 6 6 6 6 6 6 7 7 7 7 8 8 9 10 10 11 12 12 11 11 15 18 15 10 9 12 13 12 14 15 11 11 12 13 15 14 13 13 12 10 8 8 10 9 8 7 8 7 6 6 7 7 6 5 4 4 4 5 6 8 9 10 11 12 13 13 12 11 11
11 10 10 10 10 9 9 8 8 8 6 5 5 5 5 5 6 6 5 5 5 6 6 6 6 7 8 8 9 10 11 11 11 12 12 12 15 17 15 9 9 12 12 12 16 16 12 12 12 13 15 14 13 14 13 11 8 7 10 11 9 7 7 7 6 6 6 7 7 6 6 6 6 6 8 9 10 11 12 13 14 14 15 14 14
11 10 10 10 9 9 8 8 8 9 7 6 5 5 5 5 5 6 6 6 6 6 5 4 6 8 8 9 9 10 11 10 11 13 14 14 16 16 13 9 9 11 10 11 16 16 13 14 13 13 14 14 13 14 14 12 9 6 9 13 11 8 7 8 10 11 9 8 8 8 8 8 8 9 10 11 12 13 14 14 15 15 16 16 16
11 10 10 10 9 8 8 8 8 9 8 7 6 5 5 5 5 5 6 6 6 5 4 4 5 6 8 10 10 10 10 10 12 13 13 16 17 15 12 10 10 11 9 10 15 17 15 14 14 13 14 13 13 13 14 14 12 9 9 13 13 11 9 9 12 14 12 9 9 10 10 10 11 11 12 13 14 15 16 16 16 16 17 17 17
10 10 10 10 9 8 8 7 7 8 8 7 6 6 6 6 6 6 6 6 6 5 5 5 5 7 9 10 10 11 11 11 12 13 13 15 15 14 13 12 10 11 9 9 12 15 16 14 13 13 13 13 12 13 14 15 14 12 11 13 14 13 12 11 14 16 15 12 12 12 12 13 13 14 15 15 16 17 18 18 19 18 18 18 18
10 10 10 10 10 9 8 8 7 7 7 6 6 6 6 6 6 7 7 7 6 6 5 4 4 6 9 9 10 11 12 11 12 14 14 14 13 13 13 12 11 11 11 10 9 11 13 13 13 12 13 13 13 13 14 15 15 14 13 13 13 14 13 14 17 20 18 15 14 14 14 14 15 16 17 18 19 20 21 21 21 21 21 20 19
11 11 10 10 10 8 8 7 7 7 6 5 5 5 5 6 6 7 8 8 7 6 6 5 3 5 9 9 9 10 10 11 12 13 14 14 13 12 13 12 11 11 12 11 10 9 10 11 12 13 13 14 14 13 13 14 15 14 14 14 14 14 15 15 18 20 21 18 16 14 15 16 17 18 19 20 21 22 23 24 24 23 23 22 21
11 11 10 10 9 8 8 7 6 6 6 6 7 7 7 6 6 7 8 8 8 7 7 6 3 3 7 10 9 10 10 11 12 13 13 13 12 12 12 12 11 11 12 12 11 11 11 11 12 12 13 14 14 13 13 14 15 15 14 14 14 14 15 15 17 18 21 23 20 17 15 17 18 19 21 22 23 23 24 25 26 26 24 23 22
12 11 10 10 9 8 8 7 6 7 8 10 11 11 11 9 6 6 7 8 8 9 8 7 5 4 5 9 12 12 11 12 15 15 14 14 13 12 11 12 11 10 11 12 12 12 12 13 13 13 14 14 15 15 14 14 15 15 14 14 14 14 14 15 16 17 18 21 23 21 20 20 20 21 22 23 23 24 25 26 26 26 24 23 23
13 12 11 10 8 7 7 7 7 9 12 12 13 13 12 11 8 6 7 7 8 9 8 8 8 6 5 8 12 12 10 11 14 15 16 16 15 13 12 12 12 11 10 11 12 12 12 13 13 13 14 14 14 15 15 15 15 15 14 14 15 16 16 17 18 19 18 19 20 20 20 22 24 24 25 26 26 25 26 27 27 26 24 23 23
16 15 13 11 9 9 8 6 6 7 9 10 12 13 12 12 11 9 6 6 8 9 9 9 9 8 7 7 10 11 10 10 11 13 14 14 13 14 14 13 13 13 12 11 11 11 11 11 12 13 13 14 14 14 15 15 15 16 16 16 16 17 18 19 19 20 20 21 22 21 19 21 25 27 25 24 25 25 26 28 28 27 25 25 25
18 16 13 11 10 10 8 7 6 6 7 7 7 9 10 12 13 11 7 4 7 8 8 8 8 9 9 8 8 10 10 10 11 11 12 12 11 12 13 13 13 14 14 14 13 11 11 11 12 12 12 13 13 13 14 15 15 16 17 17 17 18 19 20 21 20 20 21 23 23 21 20 24 27 25 21 20 22 26 30 31 30 27 25 25
14 12 10 9 9 10 9 9 9 8 7 6 5 5 7 8 10 10 7 3 6 7 8 8 7 8 9 9 9 9 10 12 12 11 11 12 13 12 13 14 14 15 16 17 17 16 15 14 12 12 11 11 11 13 14 14 14 15 17 19 19 20 21 22 22 21 21 22 23 24 23 21 23 26 28 25 23 24 28 32 32 31 28 25 25
11 11 9 9 10 11 11 11 11 8 6 6 6 5 5 5 6 8 7 5 6 6 7 8 7 7 8 9 9 9 10 12 13 11 9 10 13 14 14 15 16 17 17 18 18 19 18 18 18 17 15 13 13 13 13 14 15 16 17 17 17 19 21 22 23 23 24 25 25 25 25 23 22 26 29 29 26 26 30 33 32 30 27 24 25
9 10 8 9 10 11 11 11 10 8 6 5 4 5 5 5 5 6 7 6 5 5 6 7 7 7 7 8 8 7 7 8 11 12 11 9 10 12 13 14 15 16 18 19 20 21 20 20 21 21 21 20 19 17 16 16 18 20 20 20 19 20 22 24 25 26 28 29 28 27 28 25 22 24 27 26 22 22 28 34 31 27 25 24 24
9 10 10 10 11 11 11 9 8 7 6 6 5 4 4 4 5 5 5 4 4 5 6 7 7 6 7 8 8 6 6 8 11 14 14 14 14 13 12 13 14 15 16 18 21 23 22 22 22 22 23 24 24 23 22 21 22 24 24 22 22 25 27 25 24 25 27 30 29 27 30 27 23 25 27 22 18 20 26 33 31 25 24 24 24
10 11 11 11 12 11 10 9 8 7 6 6 6 6 6 6 5 4 3 3 4 5 5 6 6 6 8 9 9 9 11 13 15 16 16 16 17 17 15 15 16 17 18 18 21 25 25 24 24 24 25 26 26 26 26 25 26 27 26 23 21 24 26 24 24 25 24 26 26 24 25 23 20 23 24 18 18 24 27 31 31 26 23 24 24
10 11 11 11 11 10 8 8 7 6 6 6 6 7 7 7 7 7 4 2 3 4 4 4 5 7 10 12 11 12 14 15 16 18 17 17 18 19 19 19 18 19 20 19 21 25 26 26 26 26 26 28 28 28 28 29 30 30 31 31 26 24 26 26 27 25 22 23 24 23 23 21 18 21 22 18 22 29 30 29 30 27 24 23 23
9 9 9 9 8 7 6 6 6 6 6 6 6 7 7 7 8 9 8 5 5 7 6 5 5 7 11 13 14 15 17 17 18 20 20 20 20 21 22 23 23 23 23 22 24 26 27 27 27 28 29 29 30 31 32 33 34 34 35 37 34 31 30 29 27 24 22 23 23 23 25 22 18 21 25 24 24 27 27 27 27 26 25 22 20
Wind_Direction
159 163 167 174 180 177 178 173 170 180 170 166 186 193 199 204 203 204 211 211 216 229 230 224 212 195 182 174 177 169 161 158 150 160 169 172 159 89 49 50 59 84 101 95 86 83 88 93 94 96 91 87 83 81 83 82 84 82 80 77 72 70 66 63 61 56 52 51 50 50 50 47 46 45 44 45 44 45 45 45 44 44 45 46 46
159 161 171 180 182 177 180 178 172 178 177 180 186 193 204 205 202 207 213 202 207 225 230 220 206 200 193 183 183 173 164 162 159 180 190 193 195 161 72 69 60 79 107 102 84 72 76 91 96 97 96 91 88 86 85 83 84 83 81 81 79 78 75 72 69 66 64 60 57 56 55 54 53 51 50 49 50 49 50 51 49 47 47 47 47
158 159 170 174 175 175 179 178 173 171 169 178 183 184 195 196 189 194 212 205 202 216 228 227 209 198 198 196 185 170 169 160 174 205 197 196 201 184 116 72 61 66 102 110 95 74 79 96 101 99 96 91 88 86 85 84 83 83 83 83 83 81 79 76 74 72 71 68 66 64 62 60 59 57 56 55 55 55 55 56 55 52 50 48 47
163 164 166 164 173 175 175 177 179 177 168 176 185 182 190 197 190 188 197 203 206 205 212 223 211 200 204 201 189 183 179 167 182 210 198 196 197 185 154 76 56 51 91 118 114 97 94 101 102 98 94 89 87 84 82 82 80 81 81 80 81 81 80 77 73 71 69 67 65 64 62 60 59 57 56 56 57 56 56 55 55 54 51 48 45
170 169 162 165 178 176 178 178 176 181 179 182 186 182 189 202 199 193 193 193 203 207 205 215 210 206 207 196 191 199 194 181 185 198 202 198 185 170 145 104 75 66 91 122 126 120 113 111 109 104 101 91 86 83 79 76 74 75 73 72 72 73 73 70 66 63 63 62 58 56 56 55 54 54 52 52 54 54 53 54 54 54 53 51 46
179 174 161 168 181 177 181 181 181 189 188 184 180 181 195 206 205 200 204 200 203 212 206 210 212 203 198 191 195 207 205 195 192 194 195 190 181 162 137 135 151 119 112 131 137 135 127 126 126 122 118 106 97 91 83 74 68 68 66 64 64 65 62 57 53 49 53 54 50 47 45 46 45 48 49 45 47 50 51 51 52 53 53 52 48
186 178 164 168 180 180 179 187 197 193 190 189 177 181 200 203 206 206 207 204 205 210 208 213 215 192 194 198 200 205 207 205 207 207 192 183 182 156 134 161 172 142 138 146 138 135 134 134 136 134 129 120 116 113 103 91 67 60 58 52 55 62 56 45 37 37 43 38 33 34 31 33 33 37 46 42 37 39 44 48 48 49 51 50 47
187 182 171 167 180 185 182 197 206 190 192 196 181 186 200 198 207 213 207 206 214 213 210 214 213 196 194 201 205 206 211 209 211 215 183 172 182 166 155 165 161 153 150 147 137 137 140 138 138 136 129 114 104 110 114 115 91 68 72 60 48 50 50 38 22 24 37 26 19 21 20 19 15 15 23 24 15 13 20 31 38 38 40 46 46
188 185 176 169 183 193 193 206 202 189 197 193 185 194 201 200 203 213 213 212 223 224 225 222 213 206 192 196 207 209 215 209 197 203 174 157 177 175 172 171 163 166 160 151 147 143 142 140 138 133 123 103 90 96 90 81 81 79 74 67 60 55 54 45 31 31 39 34 26 24 24 23 20 15 14 10 355 354 352 343 355 6 14 32 41
190 189 184 170 177 193 200 210 197 195 202 187 190 198 195 202 199 200 208 209 219 224 223 221 210 201 189 195 201 204 219 215 193 203 177 153 169 169 172 178 171 172 168 157 154 148 142 137 131 121 101 86 81 76 69 64 70 73 69 69 74 79 73 61 53 54 54 47 40 39 41 41 39 35 31 27 16 7 350 330 339 349 353 14 29
194 197 192 173 178 196 202 207 196 195 201 188 193 202 202 207 203 202 207 204 216 219 208 210 209 188 175 186 191 193 210 209 190 206 179 158 167 168 171 173 166 165 163 156 151 145 138 130 119 102 80 63 58 59 64 63 67 75 80 84 86 83 78 73 69 67 64 56 50 51 52 49 47 44 42 42 35 28 20 354 349 346 345 5 15
201 205 198 180 185 204 208 204 196 196 199 195 197 206 214 215 208 209 207 195 209 218 205 202 198 176 170 175 181 183 190 195 192 195 160 152 161 164 164 162 157 154 150 149 146 141 137 123 105 92 84 71 64 71 77 70 69 81 90 91 89 86 81 77 71 65 61 58 54 51 48 45 44 43 42 43 42 40 38 29 16 359 342 353 10
205 207 200 188 193 210 216 202 191 199 200 199 204 207 214 215 209 209 203 189 202 216 205 203 198 180 177 179 177 179 182 186 191 175 137 144 157 155 152 153 151 148 146 148 149 149 142 119 102 95 93 87 77 80 85 81 79 88 94 94 90 84 77 69 64 60 57 53 48 43 39 38 37 38 38 37 39 38 38 35 25 13 4 46 60
205 203 197 194 201 209 215 202 190 199 199 201 212 209 206 211 208 203 200 189 202 217 208 205 206 184 175 178 177 179 187 172 167 173 149 148 159 153 146 144 145 151 155 154 152 142 123 108 104 99 98 94 87 87 87 86 88 94 97 94 87 79 70 63 58 54 52 47 43 40 38 38 35 35 34 31 33 32 34 31 22 22 55 93 85
199 199 200 201 208 211 211 204 193 198 201 203 211 207 203 207 198 189 196 192 204 224 214 200 200 188 178 176 178 175 174 174 167 173 164 161 165 157 148 140 143 151 149 145 139 117 104 108 115 115 118 105 96 93 90 91 95 98 96 90 83 76 66 63 59 55 53 50 49 47 45 43 40 38 34 32 31 30 32 29 27 45 81 91 80
193 200 208 210 213 211 208 204 197 201 206 204 205 206 205 208 198 187 192 196 204 216 208 200 196 194 187 173 178 178 166 174 168 147 157 169 165 158 150 142 146 148 140 137 129 111 108 119 122 123 122 111 106 99 90 96 101 99 95 87 79 74 69 68 68 67 65 62 59 56 52 49 46 44 40 38 36 34 36 38 46 65 81 78 63
195 202 210 216 214 207 205 204 203 205 203 200 204 209 207 207 204 196 191 193 203 206 201 203 199 191 192 182 182 192 182 174 164 149 163 169 157 149 142 137 142 142 134 130 124 118 121 122 119 118 110 103 111 108 98 101 105 99 94 87 80 76 78 79 78 75 72 68 64 60 57 54 52 50 47 44 42 41 44 52 63 74 79 71 52
198 201 203 212 213 207 204 201 209 209 196 191 199 208 209 206 208 202 192 190 197 200 196 202 201 189 195 205 204 198 182 172 162 157 162 166 162 151 147 143 139 144 139 121 114 114 120 125 128 130 122 112 117 124 121 115 109 104 97 90 86 86 87 86 81 78 75 72 70 67 65 62 60 59 55 50 47 46 50 59 70 81 87 80 49
197 198 199 206 208 208 204 197 205 208 196 192 195 203 206 203 210 207 194 195 194 191 200 206 203 196 202 214 213 200 184 180 171 161 157 164 178 169 169 160 137 144 144 125 124 128 124 125 130 140 140 125 121 129 129 121 116 117 109 99 93 91 89 84 82 82 81 81 79 75 72 70 68 65 62 58 54 52 53 57 64 73 80 73 43
193 193 194 200 200 204 205 197 198 199 197 198 196 202 202 197 211 207 195 208 203 192 200 204 199 202 209 212 206 190 189 196 186 175 167 163 168 164 169 171 150 137 135 135 149 140 123 120 129 142 145 132 125 132 133 131 127 123 113 103 95 90 87 86 86 87 87 86 83 80 76 73 71 69 66 64 61 58 56 56 57 59 59 53 44
187 189 191 192 189 191 193 190 194 191 191 198 197 201 198 197 211 208 202 218 217 201 199 199 200 199 197 201 195 173 173 192 200 193 181 166 163 160 159 165 154 135 129 140 151 138 127 127 126 128 131 126 133 144 142 134 125 122 113 103 97 94 92 91 89 88 88 88 85 83 79 75 72 70 68 66 64 62 60 59 57 55 52 48 43
184 187 188 186 183 186 187 183 187 184 181 193 198 199 197 200 212 213 211 216 214 210 207 206 206 193 184 198 198 180 171 180 202 196 180 170 165 162 160 157 146 134 134 138 140 139 137 131 122 123 123 121 132 145 139 129 123 122 114 105 103 100 97 94 91 89 87 85 83 80 76 73 70 67 65 64 63 61 59 57 55 52 50 47 42
186 188 184 182 183 186 187 184 184 181 180 190 192 191 193 200 212 215 215 215 210 212 213 211 208 197 196 204 199 191 180 178 192 184 173 173 162 155 156 156 145 134 140 145 142 142 138 132 132 133 127 126 139 146 136 130 126 121 115 111 108 103 98 94 89 87 84 81 79 77 73 70 67 65 63 62 61 60 58 54 50 45 42 39 37
187 190 183 181 183 185 188 186 184 182 185 191 186 185 190 198 214 218 214 215 213 208 207 212 212 206 209 210 206 202 194 192 198 188 178 171 160 158 157 153 146 141 149 153 146 144 142 139 139 133 130 137 150 147 136 132 128 122 119 115 110 103 98 93 89 88 85 82 79 75 73 70 67 65 63 63 63 63 62 59 53 46 40 35 33
187 192 188 184 184 185 187 187 187 189 191 192 184 183 192 196 211 221 216 214 216 211 208 214 214 208 208 209 210 210 206 206 203 194 190 178 165 163 160 155 149 148 154 154 148 149 146 142 142 138 136 141 150 146 139 136 130 126 124 118 113 107 102 98 95 91 86 82 79 75 73 70 69 68 66 67 67 66 66 65 62 57 50 44 40
186 193 191 187 189 188 188 190 192 193 193 195 188 186 198 197 200 218 218 213 219 221 218 219 213 208 208 209 209 208 207 207 194 188 189 180 171 165 160 155 152 151 155 157 155 153 149 147 146 141 137 143 155 151 142 139 135 131 129 124 119 113 109 104 98 93 88 84 80 76 73 71 70 69 68 68 67 66 65 63 63 60 56 49 41
183 191 187 185 192 191 190 195 198 194 190 193 189 188 200 192 192 217 221 217 224 224 223 226 216 209 211 213 213 208 205 206 194 190 185 176 173 172 165 157 156 158 157 158 160 157 152 150 146 145 148 154 165 158 146 145 142 138 137 132 126 120 116 111 106 101 93 86 79 74 70 67 66 65 66 66 64 63 61 59 58 53 49 42 32
175 179 176 181 188 184 185 192 196 193 193 194 190 192 198 191 199 226 223 217 225 219 224 233 219 214 219 216 216 212 206 204 197 197 195 179 172 173 171 165 162 161 157 159 160 155 155 152 148 152 156 158 167 165 152 151 148 145 144 139 133 128 124 123 118 109 96 84 77 72 68 63 61 60 60 60 59 59 57 54 52 47 41 34 24
170 171 168 175 178 172 178 188 185 186 193 195 194 198 196 188 201 221 219 216 219 214 225 232 220 223 225 214 213 214 207 207 206 202 196 183 171 169 176 175 168 162 161 161 155 153 159 159 155 156 157 163 173 169 158 158 156 151 149 146 145 144 141 138 132 118 100 85 74 68 64 60 57 54 53 52 50 50 49 47 44 39 34 27 19
169 169 163 167 170 166 174 186 183 183 185 183 189 199 195 190 194 197 208 221 220 216 227 230 223 227 227 214 210 210 204 207 212 202 188 186 180 174 175 176 175 171 167 161 153 157 164 162 162 162 160 170 179 170 163 166 162 157 158 164 168 168 166 162 163 158 120 86 72 63 56 51 49 46 44 43 42 39 36 35 32 28 24 18 12
171 168 160 160 164 161 165 176 180 184 185 179 185 195 189 190 193 189 199 208 202 210 221 228 227 221 221 219 208 203 200 203 208 197 178 181 182 175 168 169 182 182 175 164 152 158 167 164 166 165 165 174 173 164 171 177 172 167 174 189 191 191 204 214 216 216 215 246 351 34 36 35 36 34 32 32 32 31 28 25 21 16 12 7 3
171 165 158 159 160 156 157 166 174 184 187 178 181 191 188 188 188 189 200 200 196 206 209 217 227 218 220 222 205 201 204 197 197 194 181 175 178 176 168 167 185 184 185 177 153 154 168 166 165 167 170 175 168 165 177 188 189 179 181 201 206 202 222 238 236 232 236 251 270 293 334 360 9 15 17 16 15 17 17 16 13 9 4 359 355
168 162 157 161 162 160 161 166 173 184 188 182 182 185 184 182 178 186 200 194 194 209 207 210 218 214 223 220 203 205 206 193 186 187 185 177 176 177 172 173 186 183 189 182 152 151 166 166 165 171 174 176 172 173 184 194 201 188 187 206 214 211 230 249 247 236 239 248 258 268 288 317 333 345 353 354 357 359 360 3 5 2 359 353 349
164 157 159 162 161 164 167 168 175 182 184 189 185 171 174 178 169 172 182 177 186 202 204 208 208 206 215 211 203 207 199 189 184 182 184 181 174 173 172 175 180 179 187 173 149 150 166 169 169 174 177 179 178 182 191 202 209 195 192 208 225 230 233 242 251 253 247 246 256 268 280 298 312 322 331 334 338 342 343 347 351 353 353 349 345
158 158 164 162 160 165 170 172 176 178 179 187 183 173 184 186 172 172 172 171 186 188 185 207 211 208 207 202 205 207 192 186 190 185 185 186 177 169 171 177 171 175 189 172 153 156 168 173 174 177 181 183 183 189 198 208 223 220 202 208 225 241 231 218 237 257 264 260 266 277 286 298 309 317 323 325 326 327 330 332 335 340 343 344 342
158 165 166 161 161 166 171 174 176 175 178 186 181 176 186 183 178 186 179 173 181 177 180 205 211 214 210 202 204 202 190 189 193 188 188 185 175 165 168 175 169 174 189 175 162 164 169 175 181 182 187 189 188 194 199 206 223 232 214 209 216 228 229 214 228 253 269 274 276 285 295 302 308 311 313 313 314 315 318 320 322 326 330 334 336
161 165 161 157 160 162 162 168 174 173 176 184 180 180 190 184 178 184 183 180 179 179 194 204 206 215 208 202 207 200 191 194 191 184 181 174 168 169 174 176 171 174 182 177 168 169 170 177 186 188 192 194 194 201 203 204 213 219 216 216 217 223 226 218 228 251 268 278 282 289 295 300 302 304 304 305 306 308 309 310 312 314 317 321 325
165 158 153 152 153 156 158 161 167 170 174 183 182 185 195 190 182 183 183 184 184 188 200 199 211 217 196 192 211 205 192 193 185 176 175 172 172 179 181 180 178 175 177 181 179 178 177 180 189 194 197 200 200 205 208 207 210 213 215 218 221 224 223 222 234 254 269 279 284 289 292 294 296 297 299 301 300 301 302 302 303 304 307 310 313
164 149 150 151 148 153 157 157 163 166 165 174 181 188 200 199 194 191 186 185 185 188 193 188 203 216 191 186 210 210 193 186 178 172 174 175 176 181 181 184 186 181 181 186 189 194 194 192 196 201 204 206 207 210 213 213 213 216 219 220 223 227 226 225 234 253 270 279 282 285 287 289 291 293 295 296 297 298 298 297 297 297 299 302 305
153 149 151 148 145 152 157 157 158 156 158 177 185 182 186 195 199 198 194 192 192 193 194 192 191 202 191 183 192 206 196 176 170 174 179 180 180 182 183 184 186 186 189 195 200 204 206 207 209 212 212 211 213 216 218 217 216 220 224 225 228 231 232 232 230 242 263 277 284 287 287 286 287 290 292 292 293 295 294 293 293 293 295 297 300
146 149 147 145 147 150 154 153 153 164 181 194 190 177 173 176 183 200 204 198 202 207 203 202 201 194 195 191 191 201 199 181 177 179 180 183 183 181 186 192 192 192 194 201 209 212 214 218 220 220 220 218 218 220 221 221 222 225 227 232 238 240 240 242 240 239 249 266 279 286 289 291 290 289 290 290 289 289 288 287 288 290 293 293 295
144 143 139 140 141 138 147 160 176 194 202 203 195 184 177 169 163 182 205 203 206 212 208 210 211 196 193 208 204 200 197 191 189 185 184 188 188 184 190 199 200 201 206 210 215 217 218 221 224 225 226 227 225 222 221 223 227 230 233 238 245 247 247 249 252 251 246 247 257 268 277 286 290 291 291 291 289 287 285 285 287 290 291 290 292
154 148 143 142 145 153 169 189 208 210 208 206 200 195 187 175 162 159 179 203 209 212 209 211 214 203 196 213 213 201 197 196 193 190 191 194 195 193 195 198 198 199 204 211 217 223 226 227 229 230 230 232 232 227 227 231 234 235 236 242 247 249 249 249 251 254 252 247 247 251 256 267 280 287 287 285 286 286 284 286 290 292 291 290 291
155 152 153 158 168 181 197 212 206 193 189 190 191 193 189 186 180 164 154 195 213 211 212 212 211 207 202 209 212 201 197 200 198 200 206 210 212 211 210 212 212 206 204 207 211 216 224 231 235 236 235 237 236 232 234 239 240 238 239 244 247 247 248 251 254 257 261 258 253 253 254 255 266 278 278 272 270 273 277 284 290 290 289 287 287
172 179 184 194 203 208 214 209 193 183 178 169 163 176 178 184 192 175 152 183 217 210 212 213 211 209 206 211 217 210 208 213 210 211 223 231 232 230 227 228 228 224 221 219 217 215 216 223 231 236 241 245 244 241 240 242 242 244 246 246 247 249 251 254 256 256 259 259 256 258 260 255 256 268 274 270 265 262 268 278 285 286 285 284 284
206 206 211 219 217 213 215 211 202 193 184 170 163 171 169 170 185 177 162 182 210 206 207 208 206 206 206 210 217 219 224 230 226 218 223 241 249 246 240 239 239 239 239 236 235 234 233 232 235 239 243 246 246 247 247 246 245 245 246 247 249 252 251 247 248 250 254 258 261 263 263 256 253 262 270 272 268 261 265 274 280 281 280 279 280
195 195 203 209 208 208 211 212 207 201 195 188 175 169 172 172 175 182 186 194 203 209 215 214 211 213 213 209 209 214 225 235 237 230 221 228 247 251 248 248 248 249 251 250 249 250 251 251 252 252 253 251 248 246 245 245 245 244 243 245 247 249 248 247 250 257 263 267 267 264 263 260 254 257 264 268 262 252 258 270 278 278 277 276 279
179 185 190 194 198 200 200 197 195 196 199 205 204 196 197 193 184 191 202 203 205 215 221 223 222 227 231 224 221 230 239 239 243 244 235 230 235 244 248 251 251 251 253 256 258 259 261 261 261 259 258 257 255 254 251 247 249 251 252 252 253 256 257 257 259 263 266 269 269 266 266 264 256 255 260 260 248 236 249 266 274 275 276 278 279
179 181 183 189 192 192 193 191 187 190 196 202 209 212 213 210 208 211 216 226 228 221 222 230 226 224 232 230 225 231 239 240 242 248 250 246 245 248 252 254 255 254 254 257 263 268 268 265 262 260 260 260 260 258 256 252 253 256 258 255 255 258 259 259 262 263 258 258 264 268 268 263 254 255 258 249 232 229 242 261 272 274 277 280 280
180 180 182 188 188 185 187 192 193 198 205 208 214 220 222 222 224 220 209 229 252 229 230 253 250 242 246 245 240 239 242 246 249 253 257 257 254 254 255 257 258 260 262 264 267 269 268 264 262 260 259 259 261 263 263 261 259 259 258 257 255 254 254 258 263 263 255 252 256 262 265 262 253 251 249 235 233 242 250 260 271 277 279 278 279
180 178 183 195 196 185 186 203 210 212 219 226 229 233 234 233 238 233 217 207 226 228 227 245 258 260 264 263 258 254 253 254 256 258 260 260 259 258 258 259 260 261 262 261 261 263 264 262 262 262 261 261 262 263 265 265 263 261 260 261 259 254 255 259 258 255 256 258 258 260 263 261 248 244 246 242 243 254 261 263 268 275 277 276 281